DELTA 1 DEB, 42581

Orbit data source: Space-Track

DELTA 1 DEB, 42581 is space debris in SSO originally from a launch on Tue, 06 Nov 1973 UTC launched from the Air Force Western Test Range (AFWTR). Debris objects in space refer to the collection of defunct objects orbiting the Earth. Examples of debris include non-operational satellites, rocket bodies, and fragments generated from explosions, collisions, or faulty payload assembly.

Loading next visibility...
Identifier
42581, 1973-086HV
Orbit
SSO
Country
Flag of USUS
Related business
Manufacturer
Unknown
Mission
Spacecraft
Bus & Motor
Unknown
Mass
Unknown
Launch date (UTC)
1973-11-06 (52 years ago)
Launch vehicle
Unknown
Launch site
Air Force Western Test Range (AFWTR)
Object type
Payload
Rocket body
Debris
Shape & HBR
Unknown shape, 0.1 m
Radar Cross Section
Small (<0.1 m²)

Expand to show TLE details & history
Last TLE update: 8 months ago

TLE from 8 months ago
0 DELTA 1 DEB
1 42581U 73086HV  25258.99200970  .00000425  00000-0  23727-2 0  9996
2 42581 102.1769 152.5685 0066133 251.5910 107.7971 12.69911882185106
Epoch: 2025-09-15T23:48Z
TLE epoch observation values (Epoch: 2025-09-15T23:48:29.638Z)
Latitude
-0.00002°
Longitude
160.2563°
Altitude
1,400.877 km
Speed
7.152 km/s
True Right ascension
10h 10m 16s
True Declination
0° 00' 00"
Sunlit
Object was in daylight at epoch
Visualization orbit readout
Latitude
Unknown
Longitude
Unknown
Altitude
Unknown
Speed
Unknown
Apparent Right ascension
Unknown
Apparent Declination
Unknown
Sunlit
N/A
Visualization observer readout
Local Sidereal Time
00:41:39
Azimuth
Unknown
Elevation
Unknown
Doppler factor
Unknown
Orbital elements
Apogee altitude
1,431.151 km
Perigee altitude
1,328.539 km
Semi-major axis
7,757.982 km
Eccentricity
0.00661
Inclination
102.1769°
RAAN
152.5685°
Arg. of periapsis
251.591°
True anomaly
108.51682°
Mean anomaly
107.7971°
Eccentric anomaly
108.15715°
Mean motion
3.17629 °/min
Orbital period
113.34 mins
BSTAR
0.0023727
Loading maneuver chart data...
Computing Atmospheric mass density...
Loading historical data...
Loading historical data...
Loading historical data...
Loading historical data...
Loading historical data...
Loading historical data...
Loading historical data...

Documentation

Showing up to 5 results
|